Tracking 21606 objects as of 24-Oct-2020
HD Live streaming from Space Station
objects crossing your sky now

MOLNIYA 2-14

Track MOLNIYA 2-14 now!
MOLNIYA 2-14 is classified as:


NORAD ID: 8195
Int'l Code: 1975-081A
Perigee: 1,021.8 km
Apogee: 39,085.6 km
Inclination: 63.2 °
Period: 712.5 minutes
Semi major axis: 26424 km
RCS: 17.1549 m2 (large)
Launch date: September 9, 1975
Source: Commonwealth of Independent States (former USSR) (CIS)
Launch site: PLESETSK MISSILE AND SPACE COMPLEX (PKMTR)
aabbcc
Your satellite tracking list
Your tracking list is empty




NASA's NSSDC Master Catalog

Two Line Element Set (TLE):
1  8195U 75081A   20297.93280830 -.00000930  00000-0  29806-2 0  9997
2  8195  63.2125 260.5619 7202318 293.6701   9.0935  2.02110004330792
Source of the keplerian elements: AFSPC